EHI
0 5 17 27 31 30 26 21 19 17 15 13 13 11 9 9 7 3 1 0 0 0 0 0 0 0 0 0 0 0 0 0 0 0 0 0 0 0 0 0 0 0 0
0 5 16 27 30 29 25 21 19 18 16 14 13 11 8 7 5 2 0 0 0 0 0 0 0 0 0 0 0 0 0 0 0 0 0 0 0 0 0 0 0 0 0
0 3 13 25 29 28 25 22 20 18 16 15 12 9 7 5 3 1 0 0 0 0 0 0 0 0 0 0 0 0 0 0 0 0 0 0 0 0 0 0 0 0 0
0 1 9 21 27 28 26 23 21 18 16 14 11 7 4 2 1 0 0 0 0 0 0 0 0 0 0 0 0 0 0 0 0 0 0 0 0 0 0 0 0 0 0
0 1 7 17 24 26 25 23 20 19 16 12 8 4 2 1 0 0 0 0 0 0 0 0 0 0 0 0 0 0 0 0 0 0 0 0 0 0 0 0 0 0 0
0 1 6 14 20 22 22 20 19 17 14 10 5 2 1 0 0 0 0 0 0 0 0 0 0 0 0 0 0 0 0 0 0 0 0 0 0 0 0 0 0 0 0
0 0 4 12 17 18 18 17 15 13 11 7 4 1 0 0 0 0 0 0 0 0 0 0 0 0 0 0 0 0 0 0 0 0 0 0 0 0 0 0 0 0 0
0 0 3 9 13 14 14 14 13 10 8 5 3 1 0 0 0 0 0 0 0 0 0 0 0 0 0 0 0 0 0 0 0 0 0 0 0 0 0 0 0 0 0
0 0 2 5 9 10 10 11 11 9 6 4 2 1 0 0 0 0 0 0 0 0 0 0 0 0 0 0 0 0 0 0 0 0 0 0 0 0 0 0 0 0 0
0 0 1 4 6 6 7 9 9 7 3 2 1 1 0 0 0 0 0 0 0 0 0 0 0 0 0 0 0 0 0 0 0 0 0 0 0 0 0 0 0 0 0
0 0 1 4 5 5 6 6 6 4 1 0 0 0 0 0 0 0 0 0 0 0 0 0 0 0 0 0 0 0 0 0 0 0 0 0 0 0 0 0 0 0 0
1 0 1 3 4 4 4 4 4 3 1 0 0 0 0 0 0 0 0 0 0 0 0 0 0 0 0 0 0 0 0 0 0 0 0 0 0 0 0 0 0 0 0
2 1 0 1 3 4 3 3 3 2 1 0 0 0 0 0 0 0 0 0 0 0 0 0 0 0 0 0 0 0 0 0 0 0 0 0 0 0 0 0 0 0 0
5 3 1 1 2 3 3 3 2 1 0 0 0 0 0 0 0 0 0 0 0 0 0 0 0 0 0 0 0 0 0 0 0 0 0 0 0 0 0 0 0 0 0
6 5 2 1 1 2 2 2 1 0 0 0 0 0 0 0 0 0 0 0 0 0 0 0 0 0 0 0 0 0 0 0 0 0 0 0 0 0 0 0 0 0 0
5 6 4 1 0 1 1 1 0 0 0 0 0 0 0 0 0 0 0 0 0 0 0 0 0 0 0 0 0 0 0 0 0 0 0 0 0 0 0 0 0 0 0
4 6 6 2 0 0 0 0 0 0 0 0 0 0 0 0 0 0 0 0 0 0 0 0 0 0 0 0 0 0 0 0 0 0 0 0 0 0 0 0 0 0 0
4 5 5 3 1 1 0 0 0 0 0 0 0 0 0 0 0 0 0 0 0 0 0 0 0 0 0 0 0 0 0 0 0 0 0 0 0 0 0 0 0 0 0
2 3 3 3 3 2 1 1 0 0 0 0 0 0 0 0 0 0 0 0 0 0 0 0 0 0 0 0 0 0 0 0 0 0 0 0 0 0 0 0 0 0 0
1 2 3 3 3 3 3 2 1 0 0 0 0 0 0 0 0 0 0 0 0 0 0 0 0 0 0 0 0 0 0 0 0 0 0 0 0 0 0 0 0 0 0
1 2 4 4 3 3 3 3 1 0 0 0 0 0 0 0 0 0 0 0 0 0 0 0 0 0 0 0 0 0 0 0 0 0 0 0 0 0 0 0 0 0 0
0 2 4 4 3 3 3 3 2 1 0 0 0 0 0 0 0 0 0 0 0 0 0 0 0 0 0 0 0 0 0 0 0 0 0 0 0 0 0 0 0 0 0
0 1 3 4 4 3 3 3 3 2 1 0 0 0 0 0 0 0 0 0 0 0 0 0 0 0 0 0 0 0 0 0 0 0 0 0 0 0 0 0 0 0 0
1 2 3 4 4 3 3 3 3 3 1 1 0 0 0 0 0 0 0 0 0 0 0 0 0 0 0 0 0 0 0 0 0 0 0 0 0 0 0 0 0 0 0
1 3 4 3 2 2 2 3 3 3 3 2 1 0 0 0 0 0 0 0 0 0 0 0 0 0 0 0 0 0 0 0 0 0 0 0 0 0 0 0 0 0 0
1 3 3 2 1 1 1 2 3 3 3 2 1 0 0 0 0 0 0 0 0 0 0 0 0 0 0 0 0 0 0 0 0 0 0 0 0 0 0 0 0 0 0
Wind_Speed
10 14 24 24 24 23 22 22 21 21 20 20 20 20 19 18 18 18 18 17 17 17 17 17 18 17 17 17 17 18 18 18 17 17 17 16 16 16 16 15 14 9 16
15 17 24 24 24 23 23 22 21 21 20 20 20 19 19 18 18 18 18 17 17 17 17 17 17 16 16 16 16 16 17 17 17 16 15 14 15 15 15 14 14 9 15
18 18 22 24 24 23 23 22 22 21 21 20 20 20 19 19 18 18 17 17 17 17 17 17 16 16 15 15 15 16 16 17 16 15 13 6 8 14 14 14 14 14 14
19 17 18 23 23 23 23 22 22 21 21 20 20 20 19 19 18 18 18 17 17 17 17 17 16 15 15 15 15 16 16 17 16 13 6 5 5 12 14 13 13 13 14
17 15 18 23 23 23 23 23 22 22 21 20 20 20 19 19 18 18 18 17 17 17 17 16 15 15 15 14 15 15 17 17 16 10 5 5 4 11 13 13 13 12 13
15 14 18 23 23 23 23 23 22 21 21 20 20 19 19 19 18 18 18 17 17 17 16 16 15 14 14 14 14 15 16 16 11 6 5 4 4 10 13 12 13 13 13
16 14 17 22 24 23 23 23 22 21 21 21 20 20 19 19 19 18 18 17 17 16 16 15 15 14 14 14 14 15 15 15 7 5 4 4 5 11 12 12 13 13 13
17 15 16 23 22 22 22 22 22 21 21 21 21 20 20 19 19 18 17 17 16 16 15 15 14 14 13 13 13 14 14 12 8 5 4 3 8 11 12 12 13 14 14
15 14 13 14 17 20 21 21 21 21 21 21 20 20 19 19 19 18 17 16 16 15 15 14 14 13 13 12 12 12 13 12 6 3 3 2 9 11 12 12 12 12 12
13 12 11 11 12 12 14 18 19 19 19 19 19 18 17 17 18 17 16 16 16 15 14 14 13 12 11 11 11 11 12 9 5 4 2 3 10 11 12 12 12 12 12
14 11 11 11 10 10 11 14 16 17 17 17 15 17 14 8 9 10 11 15 15 15 14 13 12 11 9 8 9 10 8 3 4 2 1 6 9 10 11 11 11 11 11
19 15 13 12 12 11 10 10 8 8 10 9 8 10 7 6 6 8 12 13 15 14 13 12 11 9 6 3 5 7 3 4 3 2 2 7 8 9 10 10 10 10 11
20 18 16 14 13 11 8 8 5 5 6 8 9 9 7 6 5 5 4 6 7 8 5 6 5 3 2 2 2 3 3 3 2 1 2 7 8 9 9 9 9 10 10
19 18 17 15 13 11 9 8 7 6 6 6 8 9 7 5 5 4 3 4 4 3 3 3 2 2 2 2 3 4 4 3 2 1 2 6 7 8 8 8 8 8 8
19 19 18 16 15 12 10 9 8 7 7 7 7 8 8 6 6 5 4 4 4 3 4 3 3 3 2 2 3 4 4 4 4 2 2 5 6 7 7 7 7 7 7
19 19 18 18 16 13 11 9 8 8 8 8 7 8 10 7 7 6 5 5 4 4 4 4 4 3 2 2 3 4 4 4 4 3 2 3 5 5 5 5 5 5 5
20 19 19 19 17 16 13 11 9 8 8 8 8 9 10 9 9 7 6 5 5 5 5 3 3 3 3 3 3 4 3 3 4 4 3 2 2 3 4 4 4 3 3
18 19 20 18 18 17 14 12 9 9 9 8 8 8 10 11 10 8 7 6 5 5 4 4 4 3 3 3 3 2 2 3 3 3 3 2 2 1 2 3 2 2 2
19 20 20 19 20 18 15 11 10 10 9 8 8 8 10 11 11 8 7 6 6 5 4 5 3 3 3 3 3 2 2 2 3 3 3 3 3 2 1 2 2 2 1
18 19 20 19 19 17 13 10 9 9 9 8 9 9 11 10 11 9 7 8 7 5 4 4 4 3 3 4 3 2 1 1 1 2 3 3 3 3 3 2 1 1 3
17 18 20 19 19 16 14 13 13 12 11 10 9 11 12 11 12 10 7 8 8 7 7 7 4 4 3 3 3 2 2 2 0 1 2 2 3 3 3 3 2 2 2
20 21 21 21 21 20 15 13 11 9 8 8 7 10 12 12 12 11 10 9 8 7 7 7 5 4 3 3 4 3 0 3 2 1 2 3 3 2 3 4 3 3 2
20 22 21 22 22 21 16 11 8 7 6 6 9 10 12 13 13 11 11 10 9 9 8 8 7 7 5 3 3 5 4 4 2 2 2 2 3 3 3 3 4 4 4
20 21 22 23 22 22 19 16 18 15 13 13 12 10 10 12 13 12 12 11 10 8 9 9 7 5 7 4 2 2 3 4 3 1 2 2 3 4 4 3 4 4 4
19 20 20 21 22 21 20 20 19 15 11 7 8 10 10 10 12 12 12 11 11 9 10 10 8 7 6 5 4 3 2 1 2 3 2 2 2 3 4 4 3 3 4
16 17 18 20 21 21 22 21 21 19 14 12 12 13 11 9 9 12 13 12 11 10 10 10 10 10 7 6 5 4 4 4 4 3 3 3 3 3 3 3 3 4 3
Wind_Direction
172 171 165 159 154 150 148 145 142 138 135 132 128 125 123 122 121 119 115 112 108 106 103 101 99 96 96 96 95 92 87 83 80 77 74 73 73 73 71 69 64 56 61
158 166 163 159 155 152 149 146 142 138 137 134 131 128 127 126 124 122 118 115 112 108 105 102 100 100 100 100 98 95 91 88 84 79 73 70 73 74 72 69 68 65 64
155 164 162 159 156 153 150 147 144 141 138 136 134 131 130 130 128 125 122 119 115 111 108 105 103 103 103 102 100 96 93 93 89 83 71 47 64 74 73 71 69 66 65
156 161 160 160 157 154 150 148 146 144 141 138 136 134 133 132 131 129 125 121 118 114 111 108 107 107 106 103 99 96 94 94 90 82 57 38 50 75 74 73 72 69 67
157 160 161 159 157 154 151 149 148 146 144 141 139 138 136 134 133 129 125 123 120 117 115 113 112 111 108 103 98 97 96 94 90 75 53 41 42 74 75 74 72 71 68
155 158 161 160 158 155 153 151 150 148 147 144 142 140 140 137 134 130 127 125 123 121 119 116 115 113 109 104 101 100 100 97 86 67 53 40 42 75 77 75 72 70 68
154 158 162 161 159 157 155 153 152 151 149 146 144 144 142 138 134 131 129 128 127 125 122 121 119 116 111 107 103 101 102 99 89 71 55 40 61 79 80 77 73 71 70
155 157 162 163 160 159 158 156 154 153 150 149 147 145 143 140 138 136 135 134 132 129 128 126 123 121 117 110 103 102 104 100 90 77 60 46 76 83 82 79 75 70 68
155 157 161 163 161 160 158 157 156 153 152 150 149 146 144 142 142 141 140 139 135 132 130 128 126 126 120 111 103 101 105 104 92 77 63 50 82 86 84 79 76 74 70
155 158 158 158 158 157 157 156 155 153 153 151 148 144 143 144 144 144 142 141 139 136 133 132 130 129 123 114 104 100 104 100 88 79 55 77 85 85 85 82 78 74 70
161 163 159 156 156 153 154 156 154 154 153 150 146 144 141 137 136 138 141 144 143 141 138 136 134 130 122 111 101 102 102 96 97 80 57 93 93 89 86 83 79 76 73
170 170 165 160 157 155 158 153 152 150 148 141 141 139 133 129 133 138 147 148 147 144 143 142 140 130 109 83 87 96 100 109 98 90 96 99 97 94 91 87 81 80 78
171 171 168 164 161 160 155 152 148 143 142 140 142 140 137 131 134 134 139 146 142 137 132 136 121 105 106 106 95 106 119 113 110 88 97 104 102 101 96 93 88 83 80
171 173 169 166 164 162 155 155 151 150 151 151 152 149 144 140 141 144 140 139 135 132 135 126 128 133 129 131 123 122 125 123 124 106 102 106 104 101 100 98 92 89 83
174 174 171 169 168 164 157 160 159 158 159 156 156 156 152 151 154 153 151 150 150 147 149 149 151 152 153 141 128 130 132 133 133 119 95 103 102 105 105 102 98 92 89
177 176 173 173 171 166 165 166 164 164 162 161 162 162 159 157 159 158 158 159 162 162 161 159 161 156 151 133 126 132 136 138 136 131 113 101 107 112 112 105 99 92 89
179 177 176 175 173 171 169 169 167 168 166 169 169 166 165 162 164 163 163 167 173 166 159 148 147 136 132 126 123 130 132 141 146 147 137 114 102 109 120 114 104 99 92
178 177 177 177 176 174 173 172 169 172 171 172 170 170 170 168 167 164 166 174 173 162 155 152 146 132 133 129 125 125 126 137 154 159 150 145 133 118 133 142 139 128 108
181 179 179 179 177 176 174 172 170 172 176 174 173 173 174 173 171 169 171 173 168 162 160 162 147 141 142 139 131 117 123 143 161 161 167 173 172 168 175 182 176 185 196
184 181 180 180 177 175 172 169 168 174 179 177 178 178 175 176 174 170 171 172 167 162 164 159 149 141 143 143 117 88 63 115 152 168 180 182 187 189 188 188 186 226 228
186 183 182 180 177 175 177 178 179 183 182 182 182 179 178 177 175 173 173 172 173 173 172 159 144 145 139 131 99 58 3 359 283 211 191 189 202 202 196 199 200 212 247
189 187 185 183 180 182 184 183 181 175 176 177 176 180 182 179 178 179 174 177 176 169 168 165 148 144 153 154 131 117 23 326 305 264 226 211 212 205 210 210 206 208 214
192 189 188 186 184 185 181 171 158 150 150 170 183 187 187 183 182 181 179 177 178 177 179 177 166 158 163 184 160 148 158 212 261 299 255 233 219 216 224 220 215 213 209
195 191 189 188 186 185 179 177 175 179 184 189 185 185 183 184 184 182 180 180 180 182 180 181 175 164 157 173 191 177 158 154 157 248 299 271 239 229 227 226 220 216 208
196 191 189 187 188 186 183 182 183 188 190 172 169 175 182 185 186 184 182 183 184 186 185 182 176 175 169 168 171 163 147 126 138 154 237 280 282 250 231 226 221 220 214
195 191 189 187 189 187 186 186 188 189 180 172 177 183 186 187 188 189 186 188 188 188 187 185 183 182 183 176 176 169 163 167 182 171 196 229 249 266 247 229 224 224 219